Year,Month,Day,Hour,Minute,Value (Times are PST for windgust in km/hr)
2018,07,01,00,14,1.60
2018,07,01,00,15,1.60
2018,07,01,00,16,1.60
2018,07,01,00,20,1.60
2018,07,01,00,21,1.60
2018,07,01,01,09,1.60
2018,07,01,01,10,1.60
2018,07,01,03,36,1.60
2018,07,01,04,12,1.60
2018,07,01,04,23,1.60
2018,07,01,04,27,1.60
2018,07,01,04,28,1.60
2018,07,01,04,29,3.20
2018,07,01,04,30,3.20
2018,07,01,04,31,1.60
2018,07,01,04,40,3.20
2018,07,01,04,41,1.60
2018,07,01,05,30,1.60
2018,07,01,05,31,1.60
2018,07,01,05,32,1.60
2018,07,01,05,36,1.60
2018,07,01,06,04,1.60
2018,07,01,06,05,3.20
2018,07,01,06,06,1.60
2018,07,01,06,20,1.60
2018,07,01,06,21,1.60
2018,07,01,06,22,1.60
2018,07,01,06,34,1.60
2018,07,01,06,35,1.60
2018,07,01,06,36,1.60
2018,07,01,06,45,1.60
2018,07,01,07,53,1.60
2018,07,01,07,54,1.60
2018,07,01,07,57,1.60
2018,07,01,07,58,1.60
2018,07,01,08,03,1.60
2018,07,01,08,04,3.20
2018,07,01,08,05,3.20
2018,07,01,08,06,1.60
2018,07,01,08,07,3.20
2018,07,01,08,08,1.60
2018,07,01,08,09,1.60
2018,07,01,08,10,1.60
2018,07,01,08,11,1.60
2018,07,01,08,12,3.20
2018,07,01,08,13,1.60
2018,07,01,08,15,3.20
2018,07,01,08,16,4.80
2018,07,01,08,17,3.20
2018,07,01,08,18,3.20
2018,07,01,08,19,1.60
2018,07,01,08,20,3.20
2018,07,01,08,21,1.60
2018,07,01,08,26,1.60
2018,07,01,08,34,1.60
2018,07,01,08,35,3.20
2018,07,01,08,36,3.20
2018,07,01,08,37,1.60
2018,07,01,08,40,3.20
2018,07,01,08,41,3.20
2018,07,01,08,42,3.20
2018,07,01,08,43,3.20
2018,07,01,08,44,3.20
2018,07,01,08,45,3.20
2018,07,01,08,46,3.20
2018,07,01,08,47,3.20
2018,07,01,08,48,4.80
2018,07,01,08,49,3.20
2018,07,01,08,50,4.80
2018,07,01,08,51,4.80
2018,07,01,08,52,1.60
2018,07,01,08,53,3.20
2018,07,01,08,54,4.80
2018,07,01,08,55,4.80
2018,07,01,08,56,4.80
2018,07,01,08,57,3.20
2018,07,01,08,58,1.60
2018,07,01,08,59,6.40
2018,07,01,09,00,4.80
2018,07,01,09,01,4.80
2018,07,01,09,02,1.60
2018,07,01,09,05,3.20
2018,07,01,09,06,3.20
2018,07,01,09,07,3.20
2018,07,01,09,08,4.80
2018,07,01,09,09,4.80
2018,07,01,09,10,6.40
2018,07,01,09,11,4.80
2018,07,01,09,12,4.80
2018,07,01,09,13,8.10
2018,07,01,09,14,4.80
2018,07,01,09,15,9.60
2018,07,01,09,16,3.20
2018,07,01,09,17,1.60
2018,07,01,09,18,3.20
2018,07,01,09,19,3.20
2018,07,01,09,20,6.40
2018,07,01,09,21,6.40
2018,07,01,09,22,9.60
2018,07,01,09,23,3.20
2018,07,01,09,24,4.80
2018,07,01,09,25,4.80
2018,07,01,09,26,4.80
2018,07,01,09,27,6.40
2018,07,01,09,28,4.80
2018,07,01,09,29,4.80
2018,07,01,09,30,1.60
2018,07,01,09,31,4.80
2018,07,01,09,32,1.60
2018,07,01,09,34,3.20
2018,07,01,09,35,3.20
2018,07,01,09,36,1.60
2018,07,01,09,37,3.20
2018,07,01,09,38,3.20
2018,07,01,09,39,4.80
2018,07,01,09,40,4.80
2018,07,01,09,41,1.60
2018,07,01,09,42,1.60
2018,07,01,09,43,1.60
2018,07,01,09,44,3.20
2018,07,01,09,45,4.80
2018,07,01,09,46,4.80
2018,07,01,09,47,4.80
2018,07,01,09,48,3.20
2018,07,01,09,49,3.20
2018,07,01,09,50,3.20
2018,07,01,09,51,3.20
2018,07,01,09,52,3.20
2018,07,01,09,53,1.60
2018,07,01,09,54,1.60
2018,07,01,09,56,4.80
2018,07,01,09,57,3.20
2018,07,01,09,58,3.20
2018,07,01,09,59,1.60
2018,07,01,10,00,1.60
2018,07,01,10,01,3.20
2018,07,01,10,03,1.60
2018,07,01,10,04,1.60
2018,07,01,10,05,1.60
2018,07,01,10,06,4.80
2018,07,01,10,07,4.80
2018,07,01,10,08,4.80
2018,07,01,10,09,3.20
2018,07,01,10,10,3.20
2018,07,01,10,11,3.20
2018,07,01,10,12,6.40
2018,07,01,10,13,4.80
2018,07,01,10,14,6.40
2018,07,01,10,15,1.60
2018,07,01,10,16,6.40
2018,07,01,10,17,3.20
2018,07,01,10,18,3.20
2018,07,01,10,19,3.20
2018,07,01,10,20,6.40
2018,07,01,10,21,4.80
2018,07,01,10,22,4.80
2018,07,01,10,23,4.80
2018,07,01,10,24,3.20
2018,07,01,10,25,1.60
2018,07,01,10,26,4.80
2018,07,01,10,27,4.80
2018,07,01,10,28,3.20
2018,07,01,10,29,3.20
2018,07,01,10,30,3.20
2018,07,01,10,31,3.20
2018,07,01,10,32,3.20
2018,07,01,10,33,1.60
2018,07,01,10,34,1.60
2018,07,01,10,35,1.60
2018,07,01,10,36,3.20
2018,07,01,10,37,3.20
2018,07,01,10,38,3.20
2018,07,01,10,39,3.20
2018,07,01,10,40,3.20
2018,07,01,10,41,3.20
2018,07,01,10,42,4.80
2018,07,01,10,43,3.20
2018,07,01,10,44,3.20
2018,07,01,10,45,3.20
2018,07,01,10,46,3.20
2018,07,01,10,47,3.20
2018,07,01,10,48,3.20
2018,07,01,10,49,3.20
2018,07,01,10,50,3.20
2018,07,01,10,51,3.20
2018,07,01,10,52,1.60
2018,07,01,10,53,1.60
2018,07,01,10,54,1.60
2018,07,01,10,55,1.60
2018,07,01,10,56,3.20
2018,07,01,10,57,4.80
2018,07,01,10,58,6.40
2018,07,01,10,59,6.40
2018,07,01,11,00,4.80
2018,07,01,11,01,1.60
2018,07,01,11,02,1.60
2018,07,01,11,03,3.20
2018,07,01,11,04,1.60
2018,07,01,11,05,3.20
2018,07,01,11,06,3.20
2018,07,01,11,07,8.10
2018,07,01,11,08,6.40
2018,07,01,11,09,3.20
2018,07,01,11,10,3.20
2018,07,01,11,11,3.20
2018,07,01,11,12,4.80
2018,07,01,11,13,4.80
2018,07,01,11,14,11.30
2018,07,01,11,15,3.20
2018,07,01,11,16,6.40
2018,07,01,11,17,6.40
2018,07,01,11,18,3.20
2018,07,01,11,19,6.40
2018,07,01,11,20,6.40
2018,07,01,11,21,4.80
2018,07,01,11,22,4.80
2018,07,01,11,23,4.80
2018,07,01,11,24,4.80
2018,07,01,11,25,6.40
2018,07,01,11,26,3.20
2018,07,01,11,27,3.20
2018,07,01,11,28,3.20
2018,07,01,11,29,3.20
2018,07,01,11,30,4.80
2018,07,01,11,31,4.80
2018,07,01,11,32,9.60
2018,07,01,11,33,14.50
2018,07,01,11,34,9.60
2018,07,01,11,35,9.60
2018,07,01,11,36,4.80
2018,07,01,11,37,4.80
2018,07,01,11,38,12.90
2018,07,01,11,39,6.40
2018,07,01,11,40,11.30
2018,07,01,11,41,11.30
2018,07,01,11,42,4.80
2018,07,01,11,43,4.80
2018,07,01,11,44,6.40
2018,07,01,11,45,6.40
2018,07,01,11,46,6.40
2018,07,01,11,47,6.40
2018,07,01,11,48,6.40
2018,07,01,11,49,4.80
2018,07,01,11,50,4.80
2018,07,01,11,51,6.40
2018,07,01,11,52,3.20
2018,07,01,11,53,3.20
2018,07,01,11,54,6.40
2018,07,01,11,55,3.20
2018,07,01,11,56,3.20
2018,07,01,11,57,4.80
2018,07,01,11,58,3.20
2018,07,01,11,59,4.80
2018,07,01,12,00,6.40
2018,07,01,12,01,6.40
2018,07,01,12,02,6.40
2018,07,01,12,03,3.20
2018,07,01,12,04,4.80
2018,07,01,12,05,8.10
2018,07,01,12,06,4.80
2018,07,01,12,07,8.10
2018,07,01,12,08,6.40
2018,07,01,12,09,4.80
2018,07,01,12,10,4.80
2018,07,01,12,11,6.40
2018,07,01,12,12,6.40
2018,07,01,12,13,9.60
2018,07,01,12,14,9.60
2018,07,01,12,15,9.60
2018,07,01,12,16,6.40
2018,07,01,12,17,11.30
2018,07,01,12,18,12.90
2018,07,01,12,19,8.10
2018,07,01,12,20,9.60
2018,07,01,12,21,12.90
2018,07,01,12,22,9.60
2018,07,01,12,23,11.30
2018,07,01,12,24,16.10
2018,07,01,12,25,8.10
2018,07,01,12,26,6.40
2018,07,01,12,27,4.80
2018,07,01,12,28,6.40
2018,07,01,12,29,9.60
2018,07,01,12,30,3.20
2018,07,01,12,31,6.40
2018,07,01,12,32,3.20
2018,07,01,12,33,8.10
2018,07,01,12,34,6.40
2018,07,01,12,35,6.40
2018,07,01,12,36,6.40
2018,07,01,12,37,11.30
2018,07,01,12,38,6.40
2018,07,01,12,39,4.80
2018,07,01,12,40,9.60
2018,07,01,12,41,3.20
2018,07,01,12,42,11.30
2018,07,01,12,43,11.30
2018,07,01,12,44,8.10
2018,07,01,12,45,6.40
2018,07,01,12,46,6.40
2018,07,01,12,47,6.40
2018,07,01,12,48,8.10
2018,07,01,12,49,8.10
2018,07,01,12,50,9.60
2018,07,01,12,51,6.40
2018,07,01,12,52,6.40
2018,07,01,12,53,9.60
2018,07,01,12,54,11.30
2018,07,01,12,55,9.60
2018,07,01,12,56,4.80
2018,07,01,12,57,11.30
2018,07,01,12,58,12.90
2018,07,01,12,59,12.90
2018,07,01,13,00,9.60
2018,07,01,13,01,6.40
2018,07,01,13,02,8.10
2018,07,01,13,03,11.30
2018,07,01,13,04,12.90
2018,07,01,13,05,9.60
2018,07,01,13,06,6.40
2018,07,01,13,07,8.10
2018,07,01,13,08,14.50
2018,07,01,13,09,16.10
2018,07,01,13,10,8.10
2018,07,01,13,11,6.40
2018,07,01,13,12,16.10
2018,07,01,13,13,8.10
2018,07,01,13,14,8.10
2018,07,01,13,15,11.30
2018,07,01,13,16,12.90
2018,07,01,13,17,4.80
2018,07,01,13,18,4.80
2018,07,01,13,19,4.80
2018,07,01,13,20,4.80
2018,07,01,13,21,4.80
2018,07,01,13,22,4.80
2018,07,01,13,23,4.80
2018,07,01,13,24,4.80
2018,07,01,13,25,6.40
2018,07,01,13,26,6.40
2018,07,01,13,27,6.40
2018,07,01,13,28,4.80
2018,07,01,13,29,3.20
2018,07,01,13,30,3.20
2018,07,01,13,31,1.60
2018,07,01,13,32,1.60
2018,07,01,13,33,1.60
2018,07,01,13,34,4.80
2018,07,01,13,35,4.80
2018,07,01,13,36,3.20
2018,07,01,13,37,6.40
2018,07,01,13,38,12.90
2018,07,01,13,39,6.40
2018,07,01,13,40,6.40
2018,07,01,13,41,12.90
2018,07,01,13,42,9.60
2018,07,01,13,43,12.90
2018,07,01,13,44,6.40
2018,07,01,13,45,12.90
2018,07,01,13,46,12.90
2018,07,01,13,47,17.70
2018,07,01,13,48,12.90
2018,07,01,13,49,11.30
2018,07,01,13,50,12.90
2018,07,01,13,51,6.40
2018,07,01,13,52,6.40
2018,07,01,13,53,3.20
2018,07,01,13,54,8.10
2018,07,01,13,55,8.10
2018,07,01,13,56,8.10
2018,07,01,13,57,6.40
2018,07,01,13,58,12.90
2018,07,01,13,59,9.60
2018,07,01,14,00,8.10
2018,07,01,14,01,6.40
2018,07,01,14,02,4.80
2018,07,01,14,03,6.40
2018,07,01,14,04,11.30
2018,07,01,14,05,8.10
2018,07,01,14,06,6.40
2018,07,01,14,07,3.20
2018,07,01,14,08,3.20
2018,07,01,14,09,6.40
2018,07,01,14,10,6.40
2018,07,01,14,11,6.40
2018,07,01,14,12,4.80
2018,07,01,14,13,3.20
2018,07,01,14,14,4.80
2018,07,01,14,15,6.40
2018,07,01,14,16,1.60
2018,07,01,14,17,1.60
2018,07,01,14,18,4.80
2018,07,01,14,19,6.40
2018,07,01,14,20,6.40
2018,07,01,14,21,6.40
2018,07,01,14,22,6.40
2018,07,01,14,23,4.80
2018,07,01,14,24,9.60
2018,07,01,14,25,4.80
2018,07,01,14,26,6.40
2018,07,01,14,27,3.20
2018,07,01,14,28,3.20
2018,07,01,14,29,6.40
2018,07,01,14,30,4.80
2018,07,01,14,31,3.20
2018,07,01,14,32,4.80
2018,07,01,14,33,6.40
2018,07,01,14,34,4.80
2018,07,01,14,35,6.40
2018,07,01,14,36,9.60
2018,07,01,14,37,4.80
2018,07,01,14,38,4.80
2018,07,01,14,39,6.40
2018,07,01,14,40,9.60
2018,07,01,14,41,6.40
2018,07,01,14,42,4.80
2018,07,01,14,43,4.80
2018,07,01,14,44,8.10
2018,07,01,14,45,6.40
2018,07,01,14,46,6.40
2018,07,01,14,47,12.90
2018,07,01,14,48,12.90
2018,07,01,14,49,9.60
2018,07,01,14,50,12.90
2018,07,01,14,51,11.30
2018,07,01,14,52,4.80
2018,07,01,14,53,9.60
2018,07,01,14,54,6.40
2018,07,01,14,55,8.10
2018,07,01,14,56,6.40
2018,07,01,14,57,3.20
2018,07,01,14,58,6.40
2018,07,01,14,59,6.40
2018,07,01,15,00,3.20
2018,07,01,15,01,11.30
2018,07,01,15,02,6.40
2018,07,01,15,03,8.10
2018,07,01,15,04,8.10
2018,07,01,15,05,9.60
2018,07,01,15,06,4.80
2018,07,01,15,07,6.40
2018,07,01,15,08,6.40
2018,07,01,15,09,6.40
2018,07,01,15,10,4.80
2018,07,01,15,11,6.40
2018,07,01,15,12,8.10
2018,07,01,15,13,11.30
2018,07,01,15,14,11.30
2018,07,01,15,15,6.40
2018,07,01,15,16,6.40
2018,07,01,15,17,9.60
2018,07,01,15,18,9.60
2018,07,01,15,19,8.10
2018,07,01,15,20,3.20
2018,07,01,15,21,3.20
2018,07,01,15,22,1.60
2018,07,01,15,23,1.60
2018,07,01,15,24,3.20
2018,07,01,15,25,1.60
2018,07,01,15,26,6.40
2018,07,01,15,27,3.20
2018,07,01,15,28,3.20
2018,07,01,15,29,6.40
2018,07,01,15,30,4.80
2018,07,01,15,31,6.40
2018,07,01,15,32,4.80
2018,07,01,15,33,4.80
2018,07,01,15,34,6.40
2018,07,01,15,35,8.10
2018,07,01,15,36,6.40
2018,07,01,15,37,4.80
2018,07,01,15,38,9.60
2018,07,01,15,39,6.40
2018,07,01,15,40,6.40
2018,07,01,15,41,6.40
2018,07,01,15,42,8.10
2018,07,01,15,43,4.80
2018,07,01,15,44,6.40
2018,07,01,15,45,4.80
2018,07,01,15,46,6.40
2018,07,01,15,47,4.80
2018,07,01,15,48,3.20
2018,07,01,15,49,4.80
2018,07,01,15,50,4.80
2018,07,01,15,51,6.40
2018,07,01,15,52,6.40
2018,07,01,15,53,6.40
2018,07,01,15,54,6.40
2018,07,01,15,55,6.40
2018,07,01,15,56,3.20
2018,07,01,15,57,3.20
2018,07,01,15,58,3.20
2018,07,01,15,59,6.40
2018,07,01,16,00,6.40
2018,07,01,16,01,6.40
2018,07,01,16,02,6.40
2018,07,01,16,03,6.40
2018,07,01,16,04,3.20
2018,07,01,16,05,6.40
2018,07,01,16,06,11.30
2018,07,01,16,07,8.10
2018,07,01,16,08,4.80
2018,07,01,16,09,3.20
2018,07,01,16,10,3.20
2018,07,01,16,11,9.60
2018,07,01,16,12,11.30
2018,07,01,16,13,4.80
2018,07,01,16,14,6.40
2018,07,01,16,15,3.20
2018,07,01,16,16,3.20
2018,07,01,16,17,3.20
2018,07,01,16,18,4.80
2018,07,01,16,19,4.80
2018,07,01,16,20,4.80
2018,07,01,16,21,6.40
2018,07,01,16,22,3.20
2018,07,01,16,23,3.20
2018,07,01,16,24,11.30
2018,07,01,16,25,6.40
2018,07,01,16,26,8.10
2018,07,01,16,27,11.30
2018,07,01,16,28,12.90
2018,07,01,16,29,12.90
2018,07,01,16,30,9.60
2018,07,01,16,31,9.60
2018,07,01,16,32,6.40
2018,07,01,16,33,9.60
2018,07,01,16,34,4.80
2018,07,01,16,35,4.80
2018,07,01,16,36,4.80
2018,07,01,16,37,6.40
2018,07,01,16,38,6.40
2018,07,01,16,39,4.80
2018,07,01,16,40,4.80
2018,07,01,16,41,6.40
2018,07,01,16,42,4.80
2018,07,01,16,43,3.20
2018,07,01,16,44,3.20
2018,07,01,16,45,3.20
2018,07,01,16,46,3.20
2018,07,01,16,47,3.20
2018,07,01,16,48,3.20
2018,07,01,16,49,3.20
2018,07,01,16,50,6.40
2018,07,01,16,51,3.20
2018,07,01,16,52,4.80
2018,07,01,16,53,6.40
2018,07,01,16,54,6.40
2018,07,01,16,55,6.40
2018,07,01,16,56,6.40
2018,07,01,16,57,6.40
2018,07,01,16,58,6.40
2018,07,01,16,59,4.80
2018,07,01,17,00,3.20
2018,07,01,17,01,4.80
2018,07,01,17,02,4.80
2018,07,01,17,03,4.80
2018,07,01,17,04,3.20
2018,07,01,17,05,3.20
2018,07,01,17,06,3.20
2018,07,01,17,07,4.80
2018,07,01,17,08,4.80
2018,07,01,17,09,4.80
2018,07,01,17,10,6.40
2018,07,01,17,11,8.10
2018,07,01,17,12,4.80
2018,07,01,17,13,6.40
2018,07,01,17,14,3.20
2018,07,01,17,15,4.80
2018,07,01,17,16,6.40
2018,07,01,17,17,6.40
2018,07,01,17,18,3.20
2018,07,01,17,19,6.40
2018,07,01,17,20,4.80
2018,07,01,17,21,3.20
2018,07,01,17,22,4.80
2018,07,01,17,23,3.20
2018,07,01,17,24,3.20
2018,07,01,17,25,8.10
2018,07,01,17,26,3.20
2018,07,01,17,27,6.40
2018,07,01,17,28,3.20
2018,07,01,17,29,4.80
2018,07,01,17,30,4.80
2018,07,01,17,31,3.20
2018,07,01,17,32,6.40
2018,07,01,17,33,6.40
2018,07,01,17,34,6.40
2018,07,01,17,35,6.40
2018,07,01,17,36,3.20
2018,07,01,17,37,4.80
2018,07,01,17,38,4.80
2018,07,01,17,39,4.80
2018,07,01,17,40,4.80
2018,07,01,17,41,4.80
2018,07,01,17,42,3.20
2018,07,01,17,43,3.20
2018,07,01,17,44,1.60
2018,07,01,17,45,3.20
2018,07,01,17,46,3.20
2018,07,01,17,47,3.20
2018,07,01,17,48,3.20
2018,07,01,17,49,3.20
2018,07,01,17,50,4.80
2018,07,01,17,51,3.20
2018,07,01,17,52,3.20
2018,07,01,17,53,3.20
2018,07,01,17,54,1.60
2018,07,01,17,55,4.80
2018,07,01,17,56,3.20
2018,07,01,17,57,3.20
2018,07,01,17,58,3.20
2018,07,01,17,59,3.20
2018,07,01,18,00,3.20
2018,07,01,18,01,4.80
2018,07,01,18,02,4.80
2018,07,01,18,03,4.80
2018,07,01,18,04,4.80
2018,07,01,18,05,6.40
2018,07,01,18,06,6.40
2018,07,01,18,07,8.10
2018,07,01,18,08,6.40
2018,07,01,18,09,6.40
2018,07,01,18,10,8.10
2018,07,01,18,11,6.40
2018,07,01,18,12,6.40
2018,07,01,18,13,6.40
2018,07,01,18,14,4.80
2018,07,01,18,15,8.10
2018,07,01,18,16,6.40
2018,07,01,18,17,6.40
2018,07,01,18,18,3.20
2018,07,01,18,19,6.40
2018,07,01,18,20,8.10
2018,07,01,18,21,4.80
2018,07,01,18,22,4.80
2018,07,01,18,23,4.80
2018,07,01,18,24,3.20
2018,07,01,18,25,4.80
2018,07,01,18,26,4.80
2018,07,01,18,27,3.20
2018,07,01,18,28,6.40
2018,07,01,18,29,6.40
2018,07,01,18,30,8.10
2018,07,01,18,31,8.10
2018,07,01,18,32,6.40
2018,07,01,18,33,6.40
2018,07,01,18,34,6.40
2018,07,01,18,35,4.80
2018,07,01,18,36,4.80
2018,07,01,18,37,8.10
2018,07,01,18,38,8.10
2018,07,01,18,39,8.10
2018,07,01,18,40,8.10
2018,07,01,18,41,9.60
2018,07,01,18,42,6.40
2018,07,01,18,43,8.10
2018,07,01,18,44,8.10
2018,07,01,18,45,6.40
2018,07,01,18,46,8.10
2018,07,01,18,47,6.40
2018,07,01,18,48,6.40
2018,07,01,18,49,8.10
2018,07,01,18,50,3.20
2018,07,01,18,51,6.40
2018,07,01,18,52,4.80
2018,07,01,18,53,8.10
2018,07,01,18,54,8.10
2018,07,01,18,55,8.10
2018,07,01,18,56,8.10
2018,07,01,18,57,9.60
2018,07,01,18,58,8.10
2018,07,01,18,59,6.40
2018,07,01,19,00,8.10
2018,07,01,19,01,4.80
2018,07,01,19,02,4.80
2018,07,01,19,03,6.40
2018,07,01,19,04,8.10
2018,07,01,19,05,8.10
2018,07,01,19,06,6.40
2018,07,01,19,07,6.40
2018,07,01,19,08,6.40
2018,07,01,19,09,8.10
2018,07,01,19,10,8.10
2018,07,01,19,11,8.10
2018,07,01,19,12,6.40
2018,07,01,19,13,8.10
2018,07,01,19,14,3.20
2018,07,01,19,15,6.40
2018,07,01,19,16,6.40
2018,07,01,19,17,6.40
2018,07,01,19,18,3.20
2018,07,01,19,19,8.10
2018,07,01,19,20,3.20
2018,07,01,19,21,3.20
2018,07,01,19,22,3.20
2018,07,01,19,23,3.20
2018,07,01,19,24,6.40
2018,07,01,19,25,8.10
2018,07,01,19,26,4.80
2018,07,01,19,27,1.60
2018,07,01,19,28,4.80
2018,07,01,19,29,9.60
2018,07,01,19,30,16.10
2018,07,01,19,31,11.30
2018,07,01,19,32,4.80
2018,07,01,19,33,14.50
2018,07,01,19,34,9.60
2018,07,01,19,35,11.30
2018,07,01,19,36,8.10
2018,07,01,19,37,9.60
2018,07,01,19,38,14.50
2018,07,01,19,39,16.10
2018,07,01,19,40,11.30
2018,07,01,19,41,16.10
2018,07,01,19,42,12.90
2018,07,01,19,43,8.10
2018,07,01,19,44,12.90
2018,07,01,19,45,8.10
2018,07,01,19,46,6.40
2018,07,01,19,47,6.40
2018,07,01,19,48,6.40
2018,07,01,19,49,6.40
2018,07,01,19,50,12.90
2018,07,01,19,51,9.60
2018,07,01,19,52,9.60
2018,07,01,19,53,14.50
2018,07,01,19,54,11.30
2018,07,01,19,55,9.60
2018,07,01,19,56,14.50
2018,07,01,19,57,6.40
2018,07,01,19,58,4.80
2018,07,01,19,59,6.40
2018,07,01,20,00,8.10
2018,07,01,20,01,4.80
2018,07,01,20,02,6.40
2018,07,01,20,03,4.80
2018,07,01,20,04,9.60
2018,07,01,20,05,8.10
2018,07,01,20,06,4.80
2018,07,01,20,07,12.90
2018,07,01,20,08,6.40
2018,07,01,20,09,12.90
2018,07,01,20,10,12.90
2018,07,01,20,11,6.40
2018,07,01,20,12,6.40
2018,07,01,20,13,6.40
2018,07,01,20,14,4.80
2018,07,01,20,15,4.80
2018,07,01,20,16,3.20
2018,07,01,20,17,1.60
2018,07,01,20,18,3.20
2018,07,01,20,19,4.80
2018,07,01,20,20,8.10
2018,07,01,20,21,4.80
2018,07,01,20,22,4.80
2018,07,01,20,23,3.20
2018,07,01,20,24,1.60
2018,07,01,20,25,4.80
2018,07,01,20,26,3.20
2018,07,01,20,27,4.80
2018,07,01,20,28,3.20
2018,07,01,20,29,3.20
2018,07,01,20,30,1.60
2018,07,01,20,32,1.60
2018,07,01,20,33,1.60
2018,07,01,20,34,3.20
2018,07,01,20,35,4.80
2018,07,01,20,36,3.20
2018,07,01,20,37,4.80
2018,07,01,20,38,4.80
2018,07,01,20,39,3.20
2018,07,01,20,40,6.40
2018,07,01,20,41,6.40
2018,07,01,20,42,6.40
2018,07,01,20,43,3.20
2018,07,01,20,44,4.80
2018,07,01,20,45,3.20
2018,07,01,20,46,3.20
2018,07,01,20,47,3.20
2018,07,01,20,48,3.20
2018,07,01,20,49,3.20
2018,07,01,20,50,3.20
2018,07,01,20,51,3.20
2018,07,01,20,52,4.80
2018,07,01,20,53,3.20
2018,07,01,20,54,3.20
2018,07,01,20,55,3.20
2018,07,01,20,56,1.60
2018,07,01,20,57,3.20
2018,07,01,20,58,3.20
2018,07,01,20,59,1.60
2018,07,01,21,01,1.60
2018,07,01,21,02,1.60
2018,07,01,21,06,1.60
2018,07,01,21,07,3.20
2018,07,01,21,08,4.80
2018,07,01,21,09,9.60
2018,07,01,21,10,4.80
2018,07,01,21,11,1.60
2018,07,01,21,13,1.60
2018,07,01,21,14,3.20
2018,07,01,21,15,3.20
2018,07,01,21,17,1.60
2018,07,01,21,18,4.80
2018,07,01,21,19,3.20
2018,07,01,21,20,3.20
2018,07,01,21,21,8.10
2018,07,01,21,22,3.20
2018,07,01,21,23,3.20
2018,07,01,21,24,1.60
2018,07,01,21,25,1.60
2018,07,01,21,26,1.60
2018,07,01,21,28,3.20
2018,07,01,21,29,3.20
2018,07,01,21,30,4.80
2018,07,01,21,31,4.80
2018,07,01,21,32,3.20
2018,07,01,21,33,1.60
2018,07,01,21,34,4.80
2018,07,01,21,35,4.80
2018,07,01,21,36,3.20
2018,07,01,21,37,4.80
2018,07,01,21,38,9.60
2018,07,01,21,39,6.40
2018,07,01,21,40,4.80
2018,07,01,21,41,4.80
2018,07,01,21,42,3.20
2018,07,01,21,43,3.20
2018,07,01,21,44,3.20
2018,07,01,21,45,3.20
2018,07,01,21,47,3.20
2018,07,01,21,48,3.20
2018,07,01,21,49,1.60
2018,07,01,21,50,1.60
2018,07,01,21,51,1.60
2018,07,01,21,52,1.60
2018,07,01,21,54,4.80
2018,07,01,21,55,3.20
2018,07,01,21,58,1.60
2018,07,01,21,59,1.60
2018,07,01,22,01,3.20
2018,07,01,22,02,3.20
2018,07,01,22,03,1.60
2018,07,01,22,08,1.60
2018,07,01,22,09,1.60
2018,07,01,22,10,3.20
2018,07,01,22,11,3.20
2018,07,01,22,12,4.80
2018,07,01,22,13,1.60
2018,07,01,22,15,1.60
2018,07,01,22,16,1.60
2018,07,01,22,18,1.60
2018,07,01,22,19,1.60
2018,07,01,22,22,4.80
2018,07,01,22,23,3.20
2018,07,01,22,24,3.20
2018,07,01,22,37,3.20
2018,07,01,22,38,3.20
2018,07,01,22,39,1.60
2018,07,01,22,40,1.60
2018,07,01,22,41,3.20
2018,07,01,22,42,3.20
2018,07,01,22,43,3.20
2018,07,01,22,44,3.20
2018,07,01,22,45,4.80
2018,07,01,22,46,6.40
2018,07,01,22,47,3.20
2018,07,01,22,48,3.20
2018,07,01,22,49,3.20
2018,07,01,22,50,3.20
2018,07,01,22,51,1.60
2018,07,01,22,52,4.80
2018,07,01,22,53,6.40
2018,07,01,22,54,14.50
2018,07,01,22,55,4.80
2018,07,01,22,56,12.90
2018,07,01,22,57,8.10
2018,07,01,22,58,6.40
2018,07,01,22,59,16.10
2018,07,01,23,00,16.10
2018,07,01,23,01,17.70
2018,07,01,23,02,12.90
2018,07,01,23,03,16.10
2018,07,01,23,04,16.10
2018,07,01,23,05,12.90
2018,07,01,23,06,12.90
2018,07,01,23,07,14.50
2018,07,01,23,08,11.30
2018,07,01,23,09,14.50
2018,07,01,23,10,14.50
2018,07,01,23,11,9.60
2018,07,01,23,12,9.60
2018,07,01,23,13,11.30
2018,07,01,23,14,8.10
2018,07,01,23,15,12.90
2018,07,01,23,16,16.10
2018,07,01,23,17,6.40
2018,07,01,23,18,12.90
2018,07,01,23,19,9.60
2018,07,01,23,20,9.60
2018,07,01,23,21,8.10
2018,07,01,23,22,14.50
2018,07,01,23,23,6.40
2018,07,01,23,24,9.60
2018,07,01,23,25,14.50
2018,07,01,23,26,12.90
2018,07,01,23,27,8.10
2018,07,01,23,28,9.60
2018,07,01,23,29,9.60
2018,07,01,23,30,14.50
2018,07,01,23,31,12.90
2018,07,01,23,32,14.50
2018,07,01,23,33,12.90
2018,07,01,23,34,12.90
2018,07,01,23,35,8.10
2018,07,01,23,36,6.40
2018,07,01,23,37,11.30
2018,07,01,23,38,1.60
2018,07,01,23,39,12.90
2018,07,01,23,40,9.60
2018,07,01,23,41,11.30
2018,07,01,23,42,8.10
2018,07,01,23,43,8.10
2018,07,01,23,44,4.80
2018,07,01,23,45,6.40
2018,07,01,23,46,9.60
2018,07,01,23,47,6.40
2018,07,01,23,48,8.10
2018,07,01,23,49,8.10
2018,07,01,23,50,9.60
2018,07,01,23,51,14.50
2018,07,01,23,52,20.90
2018,07,01,23,53,9.60
2018,07,01,23,54,6.40
2018,07,01,23,55,12.90
2018,07,01,23,56,9.60
2018,07,01,23,57,16.10
2018,07,01,23,58,17.70
2018,07,01,23,59,8.10
